Weather History for New Bedford, MA

Change the Weather History Date:

Friday, May 3, 2013

  Actual Average Record
Temperature  
Mean Temperature 48 °F -  
Max Temperature 57 °F 62 °F 90 °F (2001)
Min Temperature 41 °F 46 °F 32 °F (2000)
Degree Days  
Heating Degree Days 17    
Moisture  
Dew Point 41 °F    
Average Humidity 76    
Maximum Humidity 93    
Minimum Humidity 60    
Precipitation  
Precipitation 0.00 in - - ()
Sea Level Pressure  
Sea Level Pressure 30.43 in    
Wind  
Wind Speed 7 mph (NNE)    
Max Wind Speed 17 mph    
Max Gust Speed 28 mph    
Visibility 10 miles    
Events      
Averages and records for this station are not official NWS values.
T = Trace of Precipitation, MM = Missing Value Source: NWS Daily Summary

Daily Weather History Graph

Daily Weather History Graph

Search for Another Location

Airport:

Trip Planner

Search our weather history database for the weather conditions in past years. The results will help you decide how hot, cold, wet, or windy it might be!

Date:

Astronomy

May. 03, 2013 Rise Set
Actual Time 5:37 AM EDT 7:44 PM EDT
Civil Twilight 5:07 AM EDT 8:14 PM EDT
Nautical Twilight 4:29 AM EDT 8:52 PM EDT
Astronomical Twilight 3:49 AM EDT 9:33 PM EDT
Moon 2:05 AM EDT (5/3) 1:30 PM EDT (5/3)
Length of Visible Light 15h 07m
Length of Day
14h 06m
Last Quarter, 37% of the Moon is Illuminated
May 3
Last Quarter
May 9
New
May 18
First Quarter
May 25
Full
May 31
Last Quarter

Hourly Weather History & Observations

Time (EDT) Temp. Windchill Dew Point Humidity Pressure Visibility Wind Dir Wind Speed Gust Speed Precip Events Conditions
12:53 AM 44.1 °F 42.5 °F 39.9 °F 85% 30.45 in 10.0 mi North 3.5 mph - N/A   Clear
1:53 AM 44.1 °F 42.5 °F 39.0 °F 82% 30.43 in 10.0 mi North 3.5 mph - N/A   Clear
2:53 AM 43.0 °F 40.3 °F 39.0 °F 86% 30.42 in 10.0 mi NNE 4.6 mph - N/A   Clear
3:53 AM 41.0 °F 39.0 °F 39.0 °F 93% 30.43 in 10.0 mi NNW 3.5 mph - N/A   Clear
4:53 AM 41.0 °F 39.0 °F 39.0 °F 93% 30.44 in 10.0 mi North 3.5 mph - N/A   Clear
5:53 AM 41.0 °F 39.0 °F 39.0 °F 93% 30.46 in 10.0 mi North 3.5 mph - N/A   Clear
6:53 AM 45.0 °F - 42.1 °F 90% 30.47 in 10.0 mi Calm Calm - N/A   Clear
7:53 AM 48.9 °F - 41.0 °F 74% 30.47 in 10.0 mi North 11.5 mph 20.7 mph N/A   Partly Cloudy
8:53 AM 51.1 °F - 39.9 °F 66% 30.48 in 10.0 mi NE 17.3 mph 25.3 mph N/A   Scattered Clouds
9:21 AM 50.0 °F - 39.2 °F 66% 30.48 in 10.0 mi NNE 16.1 mph 25.3 mph N/A   Mostly Cloudy
9:53 AM 50.0 °F - 39.0 °F 66% 30.48 in 10.0 mi NE 17.3 mph 27.6 mph N/A   Mostly Cloudy
10:53 AM 53.1 °F - 39.9 °F 61% 30.47 in 10.0 mi NE 13.8 mph 24.2 mph N/A   Overcast
11:53 AM 54.0 °F - 42.1 °F 64% 30.47 in 10.0 mi NNE 10.4 mph 25.3 mph N/A   Overcast
12:53 PM 54.0 °F - 42.1 °F 64% 30.45 in 10.0 mi NE 15.0 mph 26.5 mph N/A   Overcast
1:53 PM 55.0 °F - 42.1 °F 62% 30.44 in 10.0 mi ENE 17.3 mph 21.9 mph N/A   Overcast
2:53 PM 55.9 °F - 42.1 °F 60% 30.42 in 10.0 mi NE 16.1 mph 24.2 mph N/A   Mostly Cloudy
3:53 PM 55.9 °F - 42.1 °F 60% 30.41 in 10.0 mi NNE 11.5 mph 20.7 mph N/A   Clear
4:53 PM 55.9 °F - 43.0 °F 62% 30.39 in 10.0 mi ENE 13.8 mph - N/A   Partly Cloudy
5:53 PM 55.0 °F - 42.1 °F 62% 30.39 in 10.0 mi NE 9.2 mph - N/A   Clear
6:53 PM 50.0 °F - 41.0 °F 71% 30.39 in 10.0 mi NE 11.5 mph - N/A   Clear
7:53 PM 48.0 °F - 41.0 °F 77% 30.39 in 10.0 mi NNE 6.9 mph - N/A   Clear
8:53 PM 45.0 °F 43.5 °F 41.0 °F 86% 30.40 in 10.0 mi NE 3.5 mph - N/A   Clear
9:53 PM 44.1 °F - 41.0 °F 89% 30.40 in 10.0 mi Calm Calm - N/A   Clear
10:53 PM 43.0 °F 41.3 °F 39.9 °F 89% 30.38 in 10.0 mi North 3.5 mph - N/A   Clear
11:53 PM 42.1 °F - 39.9 °F 92% 30.36 in 10.0 mi Calm Calm - N/A   Clear